0 HST 1 20580U 90037B 25286.42132441 .00010733 00000-0 38648-3 0 9994 2 20580 28.4698 322.6928 0001766 283.7513 76.2885 15.26891898750763 0 ISS (ZARYA) 1 25544U 98067A 25286.81616349 .00012055 00000-0 21953-3 0 9997 2 25544 51.6332 79.1379 0000799 266.7872 93.3025 15.49912173533567 0 CXO 1 25867U 99040B 25288.43817974 .00000826 00000-0 00000-0 0 9994 2 25867 51.9505 124.6447 8239156 310.6333 0.0894 0.37806235 16390